Location: Newark
(37.9128°N, 122.4756°W)
Time: 20:33:08
(UTC+00:00)

ISS - Pass Details

Date: 27 November 2019
Orbit: 411 x 421 km, 51.6° (Epoch: 16 December)

Event Time Altitude Azimuth Distance (km) Brightness Sun altitude
Rises 02:42:00 0° 288° (WNW) 2,356 1.1 -21.3°
Reaches altitude 10° 02:45:27 10° 326° (NNW) 1,498 -0.7 -22.0°
Enters shadow 02:46:22 11° 342° (NNW) 1,436 -1.0 -22.2°
